TimeEDT,TemperatureF,Dew PointF,Humidity,Sea Level PressureIn,VisibilityMPH,Wind Direction,Wind SpeedMPH,Gust SpeedMPH,PrecipitationIn,Events,Conditions,WindDirDegrees,DateUTC
12:52 AM,43.0,34.0,71,30.26,10.0,WSW,3.5,-,N/A,,Clear,250,2013-05-25 04:52:00
1:52 AM,41.0,34.0,76,30.26,10.0,WSW,5.8,-,N/A,,Clear,240,2013-05-25 05:52:00
2:52 AM,39.9,34.0,79,30.26,10.0,WSW,5.8,-,N/A,,Clear,240,2013-05-25 06:52:00
3:52 AM,39.9,34.0,79,30.26,10.0,WSW,5.8,-,N/A,,Clear,250,2013-05-25 07:52:00
4:52 AM,37.9,33.1,83,30.27,10.0,WSW,5.8,-,N/A,,Clear,240,2013-05-25 08:52:00
5:52 AM,37.9,33.1,83,30.29,10.0,WSW,4.6,-,N/A,,Clear,240,2013-05-25 09:52:00
6:52 AM,41.0,33.1,73,30.30,10.0,WSW,3.5,-,N/A,,Clear,240,2013-05-25 10:52:00
7:52 AM,43.0,34.0,71,30.32,10.0,WSW,8.1,-,N/A,,Clear,240,2013-05-25 11:52:00
8:52 AM,46.0,30.0,54,30.33,10.0,West,9.2,-,N/A,,Clear,260,2013-05-25 12:52:00
9:52 AM,50.0,26.1,39,30.32,10.0,West,10.4,-,N/A,,Clear,270,2013-05-25 13:52:00
10:52 AM,54.0,27.0,35,30.32,10.0,NW,10.4,18.4,N/A,,Clear,310,2013-05-25 14:52:00
11:52 AM,57.0,25.0,29,30.31,10.0,WNW,13.8,19.6,N/A,,Clear,300,2013-05-25 15:52:00
12:52 PM,60.1,26.1,27,30.29,10.0,West,12.7,-,N/A,,Clear,280,2013-05-25 16:52:00
1:52 PM,62.1,26.1,25,30.27,10.0,WNW,9.2,21.9,N/A,,Clear,300,2013-05-25 17:52:00
2:52 PM,63.0,28.0,27,30.26,10.0,NNW,12.7,20.7,N/A,,Partly Cloudy,330,2013-05-25 18:52:00
3:52 PM,59.0,28.9,32,30.26,10.0,WNW,9.2,19.6,N/A,,Mostly Cloudy,290,2013-05-25 19:52:00
4:52 PM,63.0,28.9,28,30.23,10.0,NW,9.2,17.3,N/A,,Clear,310,2013-05-25 20:52:00
5:52 PM,59.0,28.0,31,30.25,10.0,WNW,9.2,18.4,N/A,,Clear,290,2013-05-25 21:52:00
6:52 PM,59.0,30.0,33,30.25,10.0,WNW,10.4,19.6,N/A,,Clear,300,2013-05-25 22:52:00
7:52 PM,57.0,33.1,40,30.25,10.0,NW,8.1,-,N/A,,Clear,310,2013-05-25 23:52:00
8:52 PM,53.1,34.0,48,30.25,10.0,WNW,4.6,-,N/A,,Clear,300,2013-05-26 00:52:00
9:52 PM,51.1,36.0,56,30.24,10.0,WNW,4.6,-,N/A,,Clear,300,2013-05-26 01:52:00
10:52 PM,50.0,36.0,59,30.25,10.0,Calm,Calm,-,N/A,,Clear,0,2013-05-26 02:52:00
11:52 PM,48.0,36.0,63,30.25,10.0,Calm,Calm,-,N/A,,Partly Cloudy,0,2013-05-26 03:52:00